Location: Eaton
(41.3139°N, 82.0207°W)
Time: 13:08:59
(UTC+00:00)

ERS-1 Rocket - Pass Details

Date: 17 June 2021
Orbit: 752 x 758 km, 98.4° (Epoch: 26 July)

Event Time Altitude Azimuth Distance (km) Brightness Sun altitude
Exits shadow 02:24:34 17° 125° (SE) 1,852 4.4 -12.5°
Maximum altitude 02:27:51 35° 69° (ENE) 1,207 3.9 -12.9°
Drops below altitude 10° 02:32:25 10° 4° (N) 2,297 6.1 -13.5°
Sets 02:34:52 0° 356° (N) 3,226 7.2 -13.8°
